• In Deutschland
  • Länderverzeichnis
  • Für 7 Tage
  • Wassertemperatur
  • Satellitenkarten
  • Wetterkarte
  • Widgets
  • user-avatar
    Anmelden

    Stündliche Wetter Bad Endorf

    Heute, 17 Oktober, Dienstag

    Zeit Temperatur Niederschläge Wind Luftdruck Luftfeuchtigkeit
    00:00 +13°C° 0 mm 1 m/S 723 mmHg 79%
    01:00 +13°C° 0 mm 1 m/S 723 mmHg 77%
    02:00 +13°C° 0 mm 1 m/S 722 mmHg 76%
    03:00 +13°C° 0 mm 1 m/S 722 mmHg 75%
    04:00 +12°C° 0 mm 1 m/S 722 mmHg 74%
    05:00 +12°C° 0 mm 1 m/S 722 mmHg 73%
    06:00 +12°C° 0 mm 1 m/S 722 mmHg 72%
    07:00 +12°C° 0 mm 1 m/S 722 mmHg 71%
    08:00 +14°C° 0 mm 1 m/S 722 mmHg 66%
    09:00 +16°C° 0 mm 0 m/S 722 mmHg 60%
    10:00 +19°C° 0 mm 0 m/S 722 mmHg 55%
    11:00 +20°C° 0 mm 0 m/S 722 mmHg 54%
    12:00 +23°C° 0 mm 1 m/S 721 mmHg 53%
    13:00 +23°C° 0 mm 1 m/S 721 mmHg 52%
    14:00 +23°C° 0 mm 1 m/S 721 mmHg 59%
    15:00 +22°C° 0 mm 1 m/S 720 mmHg 65%
    16:00 +21°C° 0 mm 1 m/S 719 mmHg 72%
    17:00 +19°C° 0 mm 1 m/S 719 mmHg 76%
    18:00 +16°C° 0 mm 1 m/S 719 mmHg 81%
    19:00 +14°C° 0 mm 1 m/S 719 mmHg 85%
    20:00 +14°C° 0 mm 1 m/S 719 mmHg 83%
    21:00 +13°C° 0 mm 1 m/S 718 mmHg 82%
    22:00 +13°C° 0 mm 1 m/S 718 mmHg 80%
    23:00 +13°C° 0 mm 1 m/S 718 mmHg 79%

    Morgen, 18 Oktober, Mittwoch

    Zeit Temperatur Niederschläge Wind Luftdruck Luftfeuchtigkeit
    00:00 +12°C° 0 mm 1 m/S 718 mmHg 78%
    01:00 +12°C° 0 mm 1 m/S 718 mmHg 76%
    02:00 +12°C° 0 mm 1 m/S 717 mmHg 76%
    03:00 +12°C° 0 mm 1 m/S 717 mmHg 75%
    04:00 +11°C° 0 mm 1 m/S 717 mmHg 74%
    05:00 +11°C° 0 mm 1 m/S 717 mmHg 73%
    06:00 +11°C° 0 mm 1 m/S 717 mmHg 73%
    07:00 +11°C° 0 mm 1 m/S 717 mmHg 72%
    08:00 +13°C° 0 mm 1 m/S 717 mmHg 67%
    09:00 +16°C° 0 mm 1 m/S 717 mmHg 62%
    10:00 +17°C° 0 mm 0 m/S 717 mmHg 57%
    11:00 +20°C° 0 mm 1 m/S 716 mmHg 56%
    12:00 +21°C° 0 mm 1 m/S 716 mmHg 55%
    13:00 +22°C° 0 mm 1 m/S 716 mmHg 54%
    14:00 +21°C° 0 mm 1 m/S 716 mmHg 59%
    15:00 +20°C° 0 mm 1 m/S 715 mmHg 65%
    16:00 +20°C° 0 mm 1 m/S 715 mmHg 71%
    17:00 +18°C° 0 mm 1 m/S 715 mmHg 77%
    18:00 +15°C° 0 mm 1 m/S 715 mmHg 83%
    19:00 +12°C° 0 mm 0 m/S 715 mmHg 89%
    20:00 +12°C° 0 mm 1 m/S 715 mmHg 88%
    21:00 +12°C° 0 mm 1 m/S 715 mmHg 87%
    22:00 +12°C° 0 mm 1 m/S 716 mmHg 86%
    23:00 +12°C° 0 mm 1 m/S 716 mmHg 84%

    übermorgen, 19 Oktober, Donnerstag

    Zeit Temperatur Niederschläge Wind Luftdruck Luftfeuchtigkeit
    00:00 +11°C° 0 mm 1 m/S 715 mmHg 83%
    01:00 +11°C° 0 mm 1 m/S 715 mmHg 81%
    02:00 +11°C° 0 mm 1 m/S 715 mmHg 80%
    03:00 +10°C° 0 mm 1 m/S 715 mmHg 78%
    04:00 +10°C° 0 mm 1 m/S 715 mmHg 76%
    05:00 +10°C° 0 mm 1 m/S 715 mmHg 75%
    06:00 +10°C° 0 mm 1 m/S 715 mmHg 74%
    07:00 +9°C° 0 mm 1 m/S 715 mmHg 73%
    08:00 +12°C° 0 mm 1 m/S 715 mmHg 67%
    09:00 +15°C° 0 mm 1 m/S 715 mmHg 62%
    10:00 +16°C° 0 mm 0 m/S 715 mmHg 56%
    11:00 +19°C° 0 mm 1 m/S 715 mmHg 55%
    12:00 +20°C° 0 mm 1 m/S 715 mmHg 54%
    13:00 +21°C° 0 mm 1 m/S 715 mmHg 53%
    14:00 +20°C° 0 mm 1 m/S 715 mmHg 59%
    15:00 +20°C° 0 mm 1 m/S 714 mmHg 65%
    16:00 +19°C° 0 mm 1 m/S 714 mmHg 72%
    17:00 +16°C° 0 mm 1 m/S 714 mmHg 77%
    18:00 +14°C° 0 mm 1 m/S 715 mmHg 82%
    19:00 +12°C° 0 mm 1 m/S 715 mmHg 87%
    20:00 +12°C° 0 mm 1 m/S 715 mmHg 85%
    21:00 +12°C° 0 mm 1 m/S 715 mmHg 83%
    22:00 +12°C° 0 mm 1 m/S 715 mmHg 81%
    23:00 +11°C° 0 mm 1 m/S 715 mmHg 79%

    20 Oktober, Freitag

    Zeit Temperatur Niederschläge Wind Luftdruck Luftfeuchtigkeit
    00:00 +11°C° 0 mm 1 m/S 715 mmHg 76%
    01:00 +11°C° 0 mm 1 m/S 715 mmHg 74%
    02:00 +11°C° 0 mm 1 m/S 715 mmHg 72%
    03:00 +10°C° 0 mm 1 m/S 715 mmHg 71%
    04:00 +10°C° 0 mm 1 m/S 715 mmHg 69%
    05:00 +10°C° 0 mm 1 m/S 715 mmHg 69%
    06:00 +10°C° 0 mm 1 m/S 715 mmHg 69%
    07:00 +9°C° 0 mm 1 m/S 716 mmHg 68%
    08:00 +12°C° 0 mm 1 m/S 716 mmHg 63%
    09:00 +14°C° 0 mm 1 m/S 716 mmHg 59%
    10:00 +18°C° 0 mm 1 m/S 717 mmHg 54%
    11:00 +19°C° 0 mm 1 m/S 716 mmHg 53%
    12:00 +20°C° 0 mm 1 m/S 716 mmHg 51%
    13:00 +21°C° 0 mm 1 m/S 716 mmHg 50%
    14:00 +20°C° 0 mm 1 m/S 716 mmHg 56%
    15:00 +20°C° 0 mm 1 m/S 716 mmHg 61%
    16:00 +17°C° 0 mm 0 m/S 716 mmHg 67%
    17:00 +16°C° 0 mm 1 m/S 716 mmHg 70%
    18:00 +14°C° 0 mm 1 m/S 717 mmHg 74%
    19:00 +13°C° 0 mm 1 m/S 717 mmHg 78%
    20:00 +12°C° 0 mm 1 m/S 717 mmHg 77%
    21:00 +12°C° 0 mm 2 m/S 717 mmHg 75%
    22:00 +12°C° 0 mm 2 m/S 718 mmHg 74%
    23:00 +12°C° 0 mm 2 m/S 718 mmHg 72%

    21 Oktober, Samstag

    Zeit Temperatur Niederschläge Wind Luftdruck Luftfeuchtigkeit
    00:00 +10°C° 0 mm 2 m/S 718 mmHg 71%
    01:00 +10°C° 0 mm 2 m/S 717 mmHg 69%
    02:00 +10°C° 0 mm 2 m/S 717 mmHg 68%
    03:00 +10°C° 0 mm 2 m/S 717 mmHg 66%
    04:00 +10°C° 0 mm 2 m/S 717 mmHg 65%
    05:00 +10°C° 0 mm 2 m/S 717 mmHg 65%
    06:00 +10°C° 0 mm 2 m/S 717 mmHg 65%
    07:00 +10°C° 0 mm 2 m/S 717 mmHg 64%
    08:00 +13°C° 0 mm 1 m/S 717 mmHg 61%
    09:00 +16°C° 0 mm 1 m/S 717 mmHg 57%
    10:00 +20°C° 0 mm 1 m/S 717 mmHg 53%
    11:00 +21°C° 0 mm 1 m/S 717 mmHg 51%
    12:00 +22°C° 0 mm 1 m/S 717 mmHg 49%
    13:00 +23°C° 0 mm 1 m/S 716 mmHg 46%
    14:00 +22°C° 0 mm 1 m/S 716 mmHg 53%
    15:00 +21°C° 0 mm 1 m/S 716 mmHg 60%
    16:00 +20°C° 0 mm 1 m/S 716 mmHg 67%
    17:00 +18°C° 0 mm 1 m/S 716 mmHg 73%
    18:00 +15°C° 0 mm 1 m/S 716 mmHg 78%
    19:00 +13°C° 0 mm 1 m/S 716 mmHg 84%
    20:00 +13°C° 0 mm 1 m/S 716 mmHg 86%
    21:00 +13°C° 0 mm 1 m/S 716 mmHg 87%
    22:00 +12°C° 0 mm 1 m/S 716 mmHg 89%
    23:00 +13°C° 0 mm 1 m/S 715 mmHg 89%

    22 Oktober, Sonntag

    Zeit Temperatur Niederschläge Wind Luftdruck Luftfeuchtigkeit
    00:00 +13°C° 0 mm 1 m/S 715 mmHg 89%
    01:00 +13°C° 0 mm 1 m/S 715 mmHg 89%
    02:00 +13°C° 0,1 mm 1 m/S 715 mmHg 90%
    03:00 +13°C° 0,1 mm 1 m/S 715 mmHg 90%
    04:00 +13°C° 0,1 mm 1 m/S 714 mmHg 91%
    05:00 +12°C° 2 mm 2 m/S 715 mmHg 92%
    06:00 +11°C° 2 mm 3 m/S 715 mmHg 93%
    07:00 +10°C° 2 mm 4 m/S 715 mmHg 94%
    08:00 +10°C° 1,1 mm 4 m/S 715 mmHg 94%
    09:00 +10°C° 1,1 mm 3 m/S 715 mmHg 93%
    10:00 +9°C° 1,1 mm 3 m/S 715 mmHg 93%
    11:00 +9°C° 1,1 mm 2 m/S 715 mmHg 93%
    12:00 +9°C° 1,1 mm 2 m/S 715 mmHg 92%
    13:00 +9°C° 1,1 mm 2 m/S 715 mmHg 92%
    14:00 +9°C° 0,9 mm 2 m/S 715 mmHg 91%
    15:00 +9°C° 0,9 mm 2 m/S 716 mmHg 91%
    16:00 +8°C° 0,9 mm 2 m/S 716 mmHg 91%
    17:00 +8°C° 0,4 mm 2 m/S 716 mmHg 91%
    18:00 +8°C° 0,4 mm 2 m/S 717 mmHg 91%
    19:00 +7°C° 0,4 mm 3 m/S 717 mmHg 92%
    20:00 +7°C° 0,3 mm 3 m/S 717 mmHg 92%
    21:00 +5°C° 0,3 mm 3 m/S 717 mmHg 91%
    22:00 +5°C° 0,3 mm 3 m/S 718 mmHg 91%
    23:00 +5°C° 0,1 mm 3 m/S 718 mmHg 92%
    Mehr zeigen